Weather History for KCKN - January, 2013

Change the Weather History Date:

Monday, January 21, 2013

  Actual Average Record
Temperature  
Mean Temperature -14 °F -  
Max Temperature -9 °F 11 °F 28 °F (1997)
Min Temperature -18 °F 0 °F -29 °F (2014)
Degree Days  
Heating Degree Days 78    
Moisture  
Dew Point -22 °F    
Average Humidity 71    
Maximum Humidity 84    
Minimum Humidity 64    
Precipitation  
Precipitation 0.00 in - - ()
Sea Level Pressure  
Sea Level Pressure 30.31 in    
Wind  
Wind Speed 10 mph (NW)    
Max Wind Speed 16 mph    
Max Gust Speed -    
Visibility 10 miles    
Events      
Averages and records for this station are not official NWS values.
T = Trace of Precipitation, MM = Missing Value Source: NWS Daily Summary

Daily Weather History Graph

Daily Weather History Graph

Search for Another Location

Airport or City:

Trip Planner

Search our weather history database for the weather conditions in past years. The results will help you decide how hot, cold, wet, or windy it might be!

Date:

Astronomy

Jan. 21, 2013 Rise Set
Actual Time 8:05 AM CST 5:10 PM CST
Civil Twilight 7:31 AM CST 5:44 PM CST
Nautical Twilight 6:53 AM CST 6:22 PM CST
Astronomical Twilight 6:16 AM CST 6:59 PM CST
Moon 12:49 PM CST (1/21) 3:36 AM CST (1/21)
Length of Visible Light 10h 13m
Length of Day
9h 04m
Waxing Gibbous, 75% of the Moon is Illuminated
Jan 21
Waxing Gibbous
Jan 26
Full
Feb 3
Last Quarter
Feb 10
New
Feb 17
First Quarter

Hourly Weather History & Observations

Time (CST) Temp. Windchill Dew Point Humidity Pressure Visibility Wind Dir Wind Speed Gust Speed Precip Events Conditions
12:15 AM -14.8 °F -34.6 °F -20.2 °F 77% 30.35 in 10.0 mi NW 10.4 mph - N/A   Clear
12:34 AM -14.8 °F -34.6 °F -20.2 °F 77% 30.34 in 10.0 mi NW 10.4 mph - N/A   Clear
1:34 AM -16.6 °F -34.4 °F -22.0 °F 76% 30.34 in 10.0 mi NW 8.1 mph - N/A   Clear
1:55 AM -16.6 °F -35.7 °F -22.0 °F 76% 30.35 in 10.0 mi WNW 9.2 mph - N/A   Clear
2:15 AM -16.6 °F -36.8 °F -22.0 °F 76% 30.35 in 10.0 mi NW 10.4 mph - N/A   Clear
2:34 AM -16.6 °F -35.7 °F -22.0 °F 76% 30.35 in 10.0 mi NW 9.2 mph - N/A   Clear
2:55 AM -16.6 °F -36.8 °F -22.0 °F 76% 30.35 in 10.0 mi WNW 10.4 mph - N/A   Clear
3:15 AM -16.6 °F -37.9 °F -22.0 °F 76% 30.34 in 10.0 mi NW 11.5 mph - N/A   Clear
3:34 AM -16.6 °F -35.7 °F -23.8 °F 70% 30.34 in 10.0 mi WNW 9.2 mph - N/A   Clear
3:55 AM -16.6 °F -36.8 °F -23.8 °F 70% 30.33 in 10.0 mi WNW 10.4 mph - N/A   Clear
4:34 AM -16.6 °F -35.7 °F -23.8 °F 70% 30.32 in 10.0 mi WNW 9.2 mph - N/A   Clear
4:55 AM -16.6 °F -34.4 °F -23.8 °F 70% 30.32 in 10.0 mi WNW 8.1 mph - N/A   Clear
5:14 AM -16.6 °F -36.8 °F -23.8 °F 70% 30.32 in 10.0 mi WNW 10.4 mph - N/A   Clear
5:34 AM -16.6 °F -36.8 °F -23.8 °F 70% 30.32 in 10.0 mi WNW 10.4 mph - N/A   Clear
5:55 AM -16.6 °F -37.9 °F -23.8 °F 70% 30.32 in 10.0 mi WNW 11.5 mph - N/A   Clear
6:14 AM -16.6 °F -37.9 °F -23.8 °F 70% 30.32 in 10.0 mi WNW 11.5 mph - N/A   Clear
6:35 AM -16.6 °F -36.8 °F -23.8 °F 70% 30.31 in 10.0 mi WNW 10.4 mph - N/A   Clear
6:55 AM -16.6 °F -38.9 °F -23.8 °F 70% 30.31 in 10.0 mi WNW 12.7 mph - N/A   Clear
7:14 AM -16.6 °F -39.8 °F -23.8 °F 70% 30.31 in 10.0 mi WNW 13.8 mph - N/A   Clear
7:35 AM -18.4 °F -41.2 °F -25.6 °F 70% 30.31 in 10.0 mi NW 12.7 mph - N/A   Clear
7:55 AM -18.4 °F -40.2 °F -25.6 °F 70% 30.31 in 10.0 mi WNW 11.5 mph - N/A   Clear
8:14 AM -18.4 °F -39.1 °F -25.6 °F 70% 30.31 in 10.0 mi WNW 10.4 mph - N/A   Clear
8:35 AM -18.4 °F -37.9 °F -25.6 °F 70% 30.31 in 10.0 mi WNW 9.2 mph - N/A   Clear
8:54 AM -16.6 °F -34.4 °F -23.8 °F 70% 30.31 in 10.0 mi WNW 8.1 mph - N/A   Clear
9:15 AM -16.6 °F -37.9 °F -23.8 °F 70% 30.32 in 10.0 mi WNW 11.5 mph - N/A   Clear
9:35 AM -14.8 °F -37.5 °F -23.8 °F 64% 30.32 in 10.0 mi WNW 13.8 mph - N/A   Clear
9:54 AM -14.8 °F -37.5 °F -22.0 °F 70% 30.32 in 10.0 mi WNW 13.8 mph - N/A   Clear
10:15 AM -14.8 °F -38.3 °F -20.2 °F 77% 30.32 in 10.0 mi WNW 15.0 mph - N/A   Clear
10:35 AM -14.8 °F -39.1 °F -20.2 °F 77% 30.32 in 10.0 mi NW 16.1 mph - N/A   Clear
10:54 AM -13.0 °F -35.2 °F -20.2 °F 70% 30.32 in 10.0 mi NW 13.8 mph - N/A   Clear
11:15 AM -11.2 °F -32.1 °F -20.2 °F 64% 30.32 in 10.0 mi NW 12.7 mph - N/A   Clear
11:34 AM -11.2 °F -32.9 °F -20.2 °F 64% 30.31 in 10.0 mi NW 13.8 mph - N/A   Clear
11:54 AM -11.2 °F -32.9 °F -18.4 °F 70% 30.31 in 10.0 mi NW 13.8 mph - N/A   Clear
12:15 PM -11.2 °F -32.9 °F -18.4 °F 70% 30.30 in 10.0 mi WNW 13.8 mph - N/A   Clear
12:34 PM -11.2 °F -32.9 °F -18.4 °F 70% 30.30 in 10.0 mi NW 13.8 mph - N/A   Clear
12:55 PM -9.4 °F -29.8 °F -18.4 °F 65% 30.29 in 10.0 mi NW 12.7 mph - N/A   Clear
1:15 PM -11.2 °F -32.1 °F -18.4 °F 70% 30.29 in 10.0 mi NNW 12.7 mph - N/A   Clear
1:34 PM -9.4 °F -28.9 °F -18.4 °F 65% 30.28 in 10.0 mi NW 11.5 mph - N/A   Clear
1:55 PM -9.4 °F -26.8 °F -18.4 °F 65% 30.29 in 5.0 mi NNW 9.2 mph - N/A   Haze
2:15 PM -9.4 °F -26.8 °F -18.4 °F 65% 30.29 in 4.0 mi NW 9.2 mph - N/A   Haze
2:34 PM -9.4 °F -29.8 °F -18.4 °F 65% 30.29 in 10.0 mi NW 12.7 mph - N/A   Clear
2:55 PM -9.4 °F -28.9 °F -18.4 °F 65% 30.29 in 10.0 mi NW 11.5 mph - N/A   Clear
3:14 PM -9.4 °F -26.8 °F -16.6 °F 71% 30.29 in 7.0 mi NNW 9.2 mph - N/A   Clear
3:35 PM -9.4 °F -26.8 °F -16.6 °F 71% 30.30 in 10.0 mi NNW 9.2 mph - N/A   Clear
3:55 PM -9.4 °F -26.8 °F -18.4 °F 65% 30.30 in 10.0 mi NNW 9.2 mph - N/A   Clear
4:14 PM -11.2 °F -29.0 °F -18.4 °F 70% 30.30 in 10.0 mi NNW 9.2 mph - N/A   Clear
4:35 PM -11.2 °F -27.8 °F -18.4 °F 70% 30.30 in 10.0 mi NNW 8.1 mph - N/A   Clear
4:55 PM -11.2 °F -24.8 °F -18.4 °F 70% 30.30 in 10.0 mi NNW 5.8 mph - N/A   Clear
5:14 PM -11.2 °F -24.8 °F -18.4 °F 70% 30.30 in 10.0 mi NW 5.8 mph - N/A   Clear
5:35 PM -13.0 °F -27.0 °F -18.4 °F 77% 30.30 in 10.0 mi NW 5.8 mph - N/A   Clear
5:55 PM -14.8 °F - -20.2 °F 77% 30.30 in 10.0 mi Calm Calm - N/A   Clear
6:14 PM -14.8 °F -29.1 °F -20.2 °F 77% 30.29 in 10.0 mi WNW 5.8 mph - N/A   Clear
6:54 PM -14.8 °F -24.8 °F -20.2 °F 77% 30.29 in 10.0 mi WNW 3.5 mph - N/A   Clear
7:14 PM -16.6 °F -31.3 °F -20.2 °F 84% 30.30 in 10.0 mi WNW 5.8 mph - N/A   Clear
7:35 PM -16.6 °F -31.3 °F -22.0 °F 76% 30.29 in 10.0 mi WNW 5.8 mph - N/A   Clear
7:54 PM -16.6 °F -31.3 °F -22.0 °F 76% 30.30 in 10.0 mi WNW 5.8 mph - N/A   Clear
8:15 PM -16.6 °F -31.3 °F -22.0 °F 76% 30.30 in 10.0 mi NW 5.8 mph - N/A   Clear
8:35 PM -16.6 °F -29.3 °F -22.0 °F 76% 30.29 in 10.0 mi NW 4.6 mph - N/A   Clear
8:54 PM -16.6 °F -29.3 °F -22.0 °F 76% 30.29 in 10.0 mi WNW 4.6 mph - N/A   Clear
9:15 PM -16.6 °F -26.8 °F -23.8 °F 70% 30.29 in 10.0 mi West 3.5 mph - N/A   Clear
9:34 PM -16.6 °F -29.3 °F -23.8 °F 70% 30.29 in 10.0 mi WNW 4.6 mph - N/A   Clear
9:55 PM -16.6 °F -31.3 °F -22.0 °F 76% 30.29 in 10.0 mi WNW 5.8 mph - N/A   Clear
10:15 PM -16.6 °F -26.8 °F -23.8 °F 70% 30.29 in 10.0 mi WNW 3.5 mph - N/A   Clear
10:34 PM -16.6 °F - -23.8 °F 70% 30.29 in 10.0 mi Calm Calm - N/A   Clear
10:55 PM -16.6 °F -26.8 °F -23.8 °F 70% 30.29 in 10.0 mi West 3.5 mph - N/A   Clear
11:15 PM -18.4 °F -28.9 °F -23.8 °F 76% 30.30 in 10.0 mi WSW 3.5 mph - N/A   Clear
11:34 PM -18.4 °F -28.9 °F -25.6 °F 70% 30.31 in 10.0 mi WSW 3.5 mph - N/A   Clear
11:55 PM -18.4 °F - -25.6 °F 70% 30.31 in 10.0 mi Calm Calm - N/A   Clear